FW2222 Weather Reports


time (UTC)temp
C
wind
direction
speed
KPH
gust
KPH
rain 1hr
cm
rain 24hr
cm
rain mn
cm
humidity
%
barometer
mb
20260504140219 14 103 1.6 3.2 0.00 0.00 0.00 41 1098.3
20260504130429 12 96 6.4 11.3 0.00 0.03 0.00 51 1098.5
20260504110520 0 67 0.0 0.0 0.00 0.03 0.00 86 1098.7
20260504081020 1 337 0.0 0.0 0.00 0.03 0.00 84 1097.8
20260504070220 2 337 0.0 0.0 0.00 0.03 0.00 79 1097.8
20260504050419 2 337 0.0 0.0 0.00 0.03 0.00 77 1098.3
20260504044520 2 337 0.0 1.6 0.00 0.03 0.00 77 1098.4
20260504043617 2 337 0.0 0.0 0.00 0.03 0.00 75 1098.4
20260504042619 2 337 0.0 0.0 0.00 0.03 0.00 75 1098.4
20260504042518 2 337 0.0 0.0 0.00 0.03 0.00 75 1098.5
20260504041519 2 337 0.0 0.0 0.00 0.03 0.00 75 1098.3
20260504041417 2 337 0.0 0.0 0.00 0.03 0.00 75 1098.3
20260504035418 2 337 0.0 0.0 0.00 0.03 0.03 75 1098.1
20260504034415 2 337 0.0 0.0 0.00 0.03 0.03 73 1098.2
20260504032416 2 337 0.0 0.0 0.00 0.03 0.03 68 1098.0
20260504031413 3 337 0.0 0.0 0.00 0.03 0.03 66 1097.8
20260504030415 3 337 0.0 0.0 0.00 0.03 0.03 64 1097.9
20260504030315 3 337 0.0 0.0 0.00 0.03 0.03 63 1097.9
20260504025414 4 337 0.0 0.0 0.00 0.03 0.03 62 1098.0
20260504024416 5 337 0.0 0.0 0.00 0.03 0.03 58 1097.9
20260504023514 5 337 0.0 0.0 0.00 0.03 0.03 59 1098.0
20260504023416 5 337 0.0 0.0 0.00 0.03 0.03 58 1097.9
20260504022416 5 337 0.0 0.0 0.00 0.03 0.03 57 1098.2
20260504021415 5 22 0.0 0.0 0.00 0.03 0.03 53 1098.0
20260504020514 5 337 0.0 0.0 0.00 0.03 0.03 52 1098.0
20260504020415 5 337 0.0 0.0 0.00 0.03 0.03 52 1098.0
20260504014416 6 202 0.0 0.0 0.00 0.03 0.03 48 1097.8
20260504013515 6 263 0.0 0.0 0.00 0.03 0.03 45 1097.7
20260504012513 7 284 1.6 4.8 0.00 0.03 0.03 44 1097.7
20260504012416 7 270 0.0 0.0 0.00 0.03 0.03 44 1097.8
20260504011415 7 292 0.0 1.6 0.00 0.03 0.03 44 1097.7
20260504010416 7 337 0.0 0.0 0.00 0.03 0.03 43 1097.6
20260504005415 6 306 1.6 4.8 0.00 0.03 0.03 41 1097.3
20260504004417 7 253 0.0 3.2 0.00 0.03 0.03 40 1097.3
20260504002613 7 292 0.0 1.6 0.00 0.03 0.03 39 1096.9
20260504001713 7 9 0.0 3.2 0.00 0.03 0.03 38 1096.7
20260504000716 7 292 0.0 1.6 0.00 0.03 0.03 37 1096.6
20260503235714 8 308 1.6 6.4 0.00 0.03 0.03 36 1096.5
20260503234716 8 20 0.0 0.0 0.00 0.03 0.03 34 1096.5
20260503233714 8 327 6.4 9.7 0.00 0.03 0.03 34 1096.4
20260503230715 8 351 3.2 6.4 0.00 0.03 0.03 34 1096.3
20260503225717 8 352 0.0 1.6 0.00 0.03 0.03 35 1096.3
20260503224716 8 323 6.4 12.9 0.00 0.03 0.03 36 1096.0
20260503223716 8 292 1.6 3.2 0.00 0.03 0.03 38 1096.3
20260503222715 8 1 1.6 6.4 0.00 0.03 0.03 38 1096.1
20260503221714 8 343 3.2 9.7 0.00 0.03 0.03 38 1096.3
20260503220715 9 177 0.0 0.0 0.00 0.03 0.03 38 1096.5
20260503215814 9 328 4.8 6.4 0.00 0.03 0.03 38 1096.3
20260503214814 9 359 8.0 17.7 0.00 0.03 0.03 39 1096.3
20260503213713 9 341 8.0 17.7 0.00 0.03 0.03 38 1096.1
20260503211714 9 26 6.4 12.9 0.00 0.03 0.03 39 1096.3
20260503210714 9 319 4.8 9.7 0.00 0.03 0.03 40 1096.1
20260503205713 8 345 4.8 11.3 0.00 0.03 0.03 39 1096.1
20260503205614 9 339 4.8 14.5 0.00 0.03 0.03 39 1096.1
20260503204612 8 343 8.0 17.7 0.00 0.03 0.03 40 1096.3
20260503203614 8 357 9.7 19.3 0.00 0.03 0.03 40 1096.1
20260503202614 8 354 6.4 11.3 0.00 0.03 0.03 39 1096.1
20260503201614 8 354 9.7 19.3 0.00 0.03 0.03 39 1096.3
20260503200616 8 340 9.7 16.1 0.00 0.03 0.03 40 1096.1
20260503195615 8 351 11.3 22.5 0.00 0.03 0.03 41 1096.3
20260503194613 8 335 8.0 17.7 0.00 0.03 0.03 43 1096.3
20260503193613 8 315 8.0 19.3 0.00 0.03 0.03 42 1096.3
20260503192713 8 325 6.4 17.7 0.00 0.03 0.03 42 1096.3
20260503190814 8 343 11.3 22.5 0.00 0.03 0.03 43 1096.3
20260503185815 8 27 4.8 9.7 0.00 0.03 0.03 43 1096.4
20260503184815 8 340 9.7 17.7 0.00 0.03 0.03 42 1096.1
20260503184715 8 339 6.4 12.9 0.00 0.03 0.03 41 1096.1
20260503183716 8 330 8.0 14.5 0.00 0.03 0.03 41 1096.1
20260503182814 8 343 11.3 20.9 0.00 0.03 0.03 42 1096.1
20260503181816 8 343 8.0 17.7 0.00 0.03 0.03 42 1096.1
20260503181714 8 359 6.4 14.5 0.00 0.03 0.03 42 1096.3
20260503180813 8 355 4.8 11.3 0.00 0.03 0.03 42 1096.1
20260503175814 8 7 1.6 6.4 0.00 0.03 0.03 42 1096.2
20260503174814 8 347 9.7 19.3 0.00 0.03 0.03 42 1096.1
20260503172914 7 4 4.8 11.3 0.00 0.03 0.03 47 1096.3
20260503171914 7 330 6.4 14.5 0.00 0.03 0.03 47 1096.3
20260503170914 7 339 6.4 16.1 0.00 0.03 0.03 46 1096.4